When you browse on this site, cookies collect data to enhance your experience and personalize the content and advertising you see.
Visit our Privacy Policy to learn more. By continuing to use the site, you agree to this use of cookies and data.
  • Em Portugal
  • Lista de países
  • Para 7 dias
  • Temperatura da água
  • Mapas de satélite
  • Mapa do tempo
  • Widgets de tempo
  • user-avatar
    Iniciar Sessão

    Previsão horária em Chertovaya

    Hoje, 23 Maio, Quinta-feira

    Tempo Temperatura Precipitação Vento Pressão Humidade
    00:00 +15°C° 0 mm 2 m/s 737 mmHg 93%
    01:00 +15°C° 0 mm 2 m/s 737 mmHg 93%
    02:00 +14°C° 0 mm 2 m/s 736 mmHg 94%
    03:00 +14°C° 0 mm 2 m/s 736 mmHg 94%
    04:00 +15°C° 0 mm 2 m/s 736 mmHg 94%
    05:00 +15°C° 0 mm 2 m/s 736 mmHg 94%
    06:00 +16°C° 0.1 mm 2 m/s 736 mmHg 89%
    07:00 +18°C° 0.1 mm 2 m/s 736 mmHg 85%
    08:00 +19°C° 0 mm 3 m/s 736 mmHg 82%
    09:00 +20°C° 1.6 mm 3 m/s 736 mmHg 77%
    10:00 +21°C° 1.6 mm 3 m/s 736 mmHg 72%
    11:00 +22°C° 1.6 mm 3 m/s 735 mmHg 68%
    12:00 +24°C° 0.5 mm 3 m/s 735 mmHg 65%
    13:00 +24°C° 0.5 mm 3 m/s 735 mmHg 63%
    14:00 +25°C° 0 mm 2 m/s 735 mmHg 61%
    15:00 +24°C° 0.8 mm 3 m/s 735 mmHg 67%
    16:00 +22°C° 0.8 mm 3 m/s 735 mmHg 72%
    17:00 +22°C° 0.8 mm 3 m/s 735 mmHg 77%
    18:00 +20°C° 0.2 mm 3 m/s 735 mmHg 81%
    19:00 +19°C° 0.2 mm 2 m/s 735 mmHg 84%
    20:00 +17°C° 0.2 mm 2 m/s 735 mmHg 88%
    21:00 +17°C° 0.1 mm 2 m/s 735 mmHg 89%
    22:00 +17°C° 0.1 mm 2 m/s 735 mmHg 90%
    23:00 +16°C° 0.1 mm 1 m/s 736 mmHg 91%

    Amanhã, 24 Maio, Sexta-feira

    Tempo Temperatura Precipitação Vento Pressão Humidade
    00:00 +16°C° 0 mm 1 m/s 736 mmHg 92%
    01:00 +15°C° 0 mm 1 m/s 736 mmHg 93%
    02:00 +15°C° 0 mm 1 m/s 736 mmHg 94%
    03:00 +15°C° 0.1 mm 1 m/s 736 mmHg 94%
    04:00 +15°C° 0.1 mm 1 m/s 737 mmHg 94%
    05:00 +15°C° 0.1 mm 1 m/s 737 mmHg 94%
    06:00 +17°C° 0.1 mm 2 m/s 737 mmHg 91%
    07:00 +18°C° 0.1 mm 2 m/s 738 mmHg 87%
    08:00 +19°C° 0.1 mm 2 m/s 738 mmHg 84%
    09:00 +19°C° 0.1 mm 3 m/s 738 mmHg 83%
    10:00 +19°C° 0.1 mm 4 m/s 738 mmHg 82%
    11:00 +20°C° 0.1 mm 4 m/s 738 mmHg 81%
    12:00 +19°C° 0 mm 5 m/s 738 mmHg 81%
    13:00 +19°C° 0 mm 5 m/s 739 mmHg 82%
    14:00 +19°C° 0 mm 5 m/s 739 mmHg 82%
    15:00 +17°C° 0.2 mm 5 m/s 739 mmHg 84%
    16:00 +18°C° 0.2 mm 4 m/s 739 mmHg 85%
    17:00 +18°C° 0.2 mm 4 m/s 739 mmHg 86%
    18:00 +17°C° 0.3 mm 4 m/s 739 mmHg 88%
    19:00 +15°C° 0.3 mm 4 m/s 739 mmHg 90%
    20:00 +15°C° 0.3 mm 4 m/s 739 mmHg 91%
    21:00 +14°C° 0.1 mm 4 m/s 738 mmHg 93%
    22:00 +14°C° 0.1 mm 4 m/s 738 mmHg 95%
    23:00 +13°C° 0.1 mm 4 m/s 738 mmHg 96%

    Depois de amanhã, 25 Maio, Sábado

    Tempo Temperatura Precipitação Vento Pressão Humidade
    00:00 +14°C° 0.4 mm 4 m/s 738 mmHg 96%
    01:00 +14°C° 0.4 mm 4 m/s 738 mmHg 97%
    02:00 +14°C° 0.4 mm 4 m/s 738 mmHg 97%
    03:00 +14°C° 0.4 mm 4 m/s 738 mmHg 97%
    04:00 +14°C° 0.4 mm 4 m/s 737 mmHg 97%
    05:00 +14°C° 0.4 mm 4 m/s 737 mmHg 97%
    06:00 +15°C° 0 mm 4 m/s 737 mmHg 95%
    07:00 +15°C° 0 mm 4 m/s 737 mmHg 94%
    08:00 +17°C° 0 mm 4 m/s 737 mmHg 93%
    09:00 +18°C° 0.1 mm 4 m/s 737 mmHg 91%
    10:00 +18°C° 0.1 mm 4 m/s 736 mmHg 88%
    11:00 +19°C° 0.1 mm 4 m/s 736 mmHg 86%
    12:00 +20°C° 1.5 mm 4 m/s 736 mmHg 82%
    13:00 +21°C° 1.5 mm 3 m/s 736 mmHg 78%
    14:00 +22°C° 1.5 mm 3 m/s 735 mmHg 73%
    15:00 +21°C° 1.8 mm 3 m/s 735 mmHg 78%
    16:00 +20°C° 1.8 mm 3 m/s 735 mmHg 82%
    17:00 +19°C° 1.8 mm 2 m/s 734 mmHg 87%
    18:00 +18°C° 0 mm 2 m/s 734 mmHg 88%
    19:00 +17°C° 0 mm 2 m/s 734 mmHg 90%
    20:00 +16°C° 0 mm 2 m/s 734 mmHg 91%
    21:00 +16°C° 0 mm 2 m/s 734 mmHg 92%
    22:00 +16°C° 0 mm 2 m/s 734 mmHg 92%
    23:00 +15°C° 0 mm 2 m/s 734 mmHg 93%

    26 Maio, Domingo

    Tempo Temperatura Precipitação Vento Pressão Humidade
    00:00 +15°C° 0.1 mm 2 m/s 734 mmHg 93%
    01:00 +15°C° 0.1 mm 2 m/s 734 mmHg 93%
    02:00 +15°C° 0.1 mm 2 m/s 734 mmHg 94%
    03:00 +15°C° 0 mm 2 m/s 734 mmHg 94%
    04:00 +15°C° 0 mm 2 m/s 734 mmHg 94%
    05:00 +15°C° 0 mm 2 m/s 734 mmHg 95%
    06:00 +16°C° 0 mm 2 m/s 735 mmHg 91%
    07:00 +17°C° 0 mm 3 m/s 735 mmHg 86%
    08:00 +18°C° 0 mm 3 m/s 735 mmHg 82%
    09:00 +19°C° 0 mm 3 m/s 735 mmHg 75%
    10:00 +21°C° 0 mm 3 m/s 735 mmHg 67%
    11:00 +22°C° 0 mm 3 m/s 735 mmHg 59%
    12:00 +22°C° 0.1 mm 4 m/s 735 mmHg 59%
    13:00 +22°C° 0.1 mm 4 m/s 735 mmHg 58%
    14:00 +22°C° 0.1 mm 4 m/s 735 mmHg 57%
    15:00 +22°C° 0 mm 4 m/s 735 mmHg 60%
    16:00 +21°C° 0 mm 4 m/s 736 mmHg 63%
    17:00 +21°C° 0 mm 4 m/s 736 mmHg 66%
    18:00 +19°C° 0 mm 4 m/s 736 mmHg 70%
    19:00 +17°C° 0 mm 3 m/s 736 mmHg 74%
    20:00 +14°C° 0 mm 3 m/s 736 mmHg 79%
    21:00 +14°C° 0 mm 3 m/s 736 mmHg 81%
    22:00 +13°C° 0 mm 3 m/s 737 mmHg 83%
    23:00 +12°C° 0 mm 3 m/s 737 mmHg 86%

    27 Maio, Segunda-feira

    Tempo Temperatura Precipitação Vento Pressão Humidade
    00:00 +12°C° 0 mm 3 m/s 737 mmHg 85%
    01:00 +11°C° 0 mm 3 m/s 737 mmHg 85%
    02:00 +11°C° 0 mm 3 m/s 737 mmHg 84%
    03:00 +12°C° 0 mm 3 m/s 737 mmHg 85%
    04:00 +12°C° 0 mm 3 m/s 738 mmHg 85%
    05:00 +13°C° 0 mm 3 m/s 738 mmHg 85%
    06:00 +14°C° 0 mm 4 m/s 738 mmHg 83%
    07:00 +17°C° 0 mm 4 m/s 738 mmHg 80%
    08:00 +17°C° 0 mm 5 m/s 738 mmHg 77%
    09:00 +19°C° 0.4 mm 5 m/s 738 mmHg 76%
    10:00 +20°C° 0.4 mm 5 m/s 739 mmHg 75%
    11:00 +21°C° 0.4 mm 5 m/s 739 mmHg 75%
    12:00 +21°C° 0.6 mm 5 m/s 739 mmHg 74%
    13:00 +21°C° 0.6 mm 5 m/s 739 mmHg 74%
    14:00 +22°C° 0.6 mm 5 m/s 739 mmHg 74%
    15:00 +22°C° 0.3 mm 5 m/s 739 mmHg 74%
    16:00 +22°C° 0.3 mm 4 m/s 739 mmHg 74%
    17:00 +22°C° 0.3 mm 3 m/s 739 mmHg 75%
    18:00 +20°C° 0.3 mm 3 m/s 739 mmHg 81%
    19:00 +19°C° 0.3 mm 3 m/s 740 mmHg 87%
    20:00 +17°C° 0.3 mm 2 m/s 740 mmHg 93%
    21:00 +17°C° 0.1 mm 2 m/s 740 mmHg 94%
    22:00 +16°C° 0.1 mm 2 m/s 740 mmHg 95%
    23:00 +16°C° 0.1 mm 2 m/s 740 mmHg 95%

    28 Maio, Terça-feira

    Tempo Temperatura Precipitação Vento Pressão Humidade
    00:00 +16°C° 0.2 mm 2 m/s 740 mmHg 96%
    01:00 +14°C° 0.2 mm 3 m/s 740 mmHg 96%
    02:00 +14°C° 0.2 mm 3 m/s 741 mmHg 97%
    03:00 +14°C° 0 mm 3 m/s 741 mmHg 96%
    04:00 +14°C° 0 mm 3 m/s 741 mmHg 96%
    05:00 +14°C° 0 mm 3 m/s 741 mmHg 96%
    06:00 +17°C° 0 mm 3 m/s 741 mmHg 93%
    07:00 +18°C° 0 mm 3 m/s 741 mmHg 89%
    08:00 +20°C° 0 mm 3 m/s 742 mmHg 86%
    09:00 +21°C° 0 mm 3 m/s 742 mmHg 81%
    10:00 +22°C° 0 mm 4 m/s 742 mmHg 75%
    11:00 +25°C° 0 mm 4 m/s 742 mmHg 70%
    12:00 +25°C° 0 mm 4 m/s 742 mmHg 68%
    13:00 +26°C° 0 mm 4 m/s 742 mmHg 65%
    14:00 +27°C° 0 mm 3 m/s 742 mmHg 63%
    15:00 +26°C° 0.1 mm 3 m/s 742 mmHg 68%
    16:00 +25°C° 0.1 mm 3 m/s 742 mmHg 73%
    17:00 +25°C° 0.1 mm 3 m/s 742 mmHg 77%
    18:00 +24°C° 0 mm 3 m/s 742 mmHg 82%
    19:00 +21°C° 0 mm 2 m/s 742 mmHg 86%
    20:00 +20°C° 0 mm 2 m/s 742 mmHg 91%
    21:00 +19°C° 0 mm 2 m/s 742 mmHg 92%
    22:00 +19°C° 0 mm 2 m/s 742 mmHg 92%
    23:00 +19°C° 0 mm 3 m/s 742 mmHg 93%
    Mostrar mais